Location: Rowland
(34.5359°N, 79.2929°W)
Time: 18:15:00
(UTC+00:00)

Transit 2A Rocket - Pass Details

Date: 05 October 2022
Orbit: 589 x 911 km, 66.7° (Epoch: 02 December)

Event Time Altitude Azimuth Distance (km) Brightness Sun altitude
Rises 21:06:39 0° 306° (NW) 3,139 8.6 20.9°
Reaches altitude 10° 21:10:36 10° 275° (W) 2,296 8.8 20.2°
Maximum altitude 21:12:24 12° 255° (WSW) 2,212 9.8 19.8°
Drops below altitude 10° 21:14:14 10° 235° (SW) 2,366 9.4 19.5°
Sets 21:18:31 0° 204° (SSW) 3,373 9.0 18.7°
